Location: Tuckahoe State Park
(38.9833°N, 75.9333°W)
Time: 16:34:15
(UTC-04:00)

Hubble Space Telescope - Visible Passes

Search period start: 21 April 2019 00:00
Search period end: 01 May 2019 00:00
Orbit: 537 x 540 km, 28.5° (Epoch: 21 April)

Date Brightness Start Highest point End Pass type
(mag) Time Alt. Az. Time Alt. Az. Time Alt. Az.
23 Apr 3.2 05:42:18 10° S 05:43:43 11° SSE 05:45:08 10° SE visible
24 Apr 3.1 05:31:04 10° SSW 05:33:05 13° SSE 05:35:06 10° SE visible
25 Apr 2.9 05:20:05 10° SSW 05:22:27 15° SSE 05:24:50 10° SE visible
26 Apr 2.7 05:09:46 12° SSW 05:11:50 16° S 05:14:28 10° SE visible
27 Apr 2.6 04:59:43 15° SSW 05:01:14 17° S 05:04:01 10° SE visible
28 Apr 2.5 04:49:41 17° SSW 04:50:37 18° S 04:53:30 10° SE visible
29 Apr 2.4 04:39:42 19° S 04:40:01 19° S 04:42:57 10° SE visible
30 Apr 2.5 04:29:45 19° S 04:29:45 19° S 04:32:21 10° SE visible
